EDT,Max TemperatureF,Mean TemperatureF,Min TemperatureF,Max Dew PointF,MeanDew PointF,Min DewpointF,Max Humidity, Mean Humidity, Min Humidity, Max Sea Level PressureIn, Mean Sea Level PressureIn, Min Sea Level PressureIn, Max VisibilityMiles, Mean VisibilityMiles, Min VisibilityMiles, Max Wind SpeedMPH, Mean Wind SpeedMPH, Max Gust SpeedMPH,PrecipitationIn, CloudCover, Events, WindDirDegrees
2012-10-1,73,62,50,61,53,48,100,86,43,30.01,29.96,29.92,10,10,7,6,1,,0.00,3,,170
2012-10-2,82,72,62,77,67,60,100,92,79,29.99,29.97,29.91,10,10,7,12,4,,0.00,7,Rain,142
2012-10-3,82,78,73,77,74,70,100,93,66,30.16,30.06,29.98,10,8,5,12,4,17,0.00,6,,214
2012-10-4,80,71,62,75,71,63,100,94,61,30.18,30.14,30.11,10,8,3,7,2,,0.00,3,,243
2012-10-5,82,70,57,63,60,57,100,85,42,30.17,30.12,30.01,10,9,1,9,1,,0.00,0,,265
2012-10-6,80,68,55,64,59,47,100,82,57,30.07,29.96,29.86,10,10,10,17,6,23,0.00,2,,233
2012-10-7,62,54,46,50,46,42,100,83,63,30.19,30.11,30.06,10,8,0,10,4,16,0.00,6,Fog-Rain,33
2012-10-8,53,48,42,49,46,43,100,94,72,30.32,30.24,30.19,10,9,0,8,3,,0.00,5,Fog,39
2012-10-9,59,54,48,57,51,46,100,96,87,30.22,30.17,30.09,10,8,2,10,7,,0.01,7,Rain,29
2012-10-10,68,62,55,61,54,42,100,87,56,30.10,30.02,29.93,10,5,1,15,2,21,0.00,6,,286
2012-10-11,62,54,46,55,41,36,91,65,39,30.31,30.22,30.10,10,10,10,16,11,22,0.00,0,,331
2012-10-12,66,54,41,52,42,33,100,80,45,30.47,30.25,30.18,10,10,10,17,3,31,0.00,0,,335
2012-10-13,60,46,32,46,36,32,100,79,39,30.56,30.48,30.36,10,10,10,9,2,,0.00,0,,179
2012-10-14,73,60,46,61,52,46,100,85,44,30.35,30.22,30.00,10,10,10,15,7,23,0.00,1,,193
2012-10-15,68,63,57,64,61,55,100,88,73,30.00,29.86,29.72,10,9,3,16,10,21,0.00,4,Rain,223
2012-10-16,62,52,42,53,48,43,100,81,52,29.97,29.88,29.81,10,10,10,15,9,21,0.00,1,,334
2012-10-17,68,54,41,51,45,41,100,87,52,30.06,30.00,29.95,10,10,10,7,1,,0.00,2,,196
2012-10-18,73,60,46,63,53,46,100,89,50,30.02,29.96,29.85,10,10,7,16,6,23,0.00,3,,156
2012-10-19,77,70,62,72,66,63,100,95,69,29.87,29.78,29.68,10,9,2,15,8,23,0.07,6,Rain,177
2012-10-20,68,59,50,62,52,44,100,84,49,29.96,29.80,29.72,10,9,0,9,2,,0.01,0,Fog,299
2012-10-21,66,57,48,46,45,44,92,72,46,30.15,30.06,29.96,10,10,10,12,6,17,0.00,0,,328
2012-10-22,68,56,44,50,46,44,100,84,46,30.23,30.17,30.14,10,10,10,9,1,,0.00,0,,300
2012-10-23,78,63,48,57,52,48,100,84,44,30.18,30.14,30.09,10,10,10,8,1,,0.00,1,,211
2012-10-24,80,68,57,63,59,56,100,84,48,30.18,30.13,30.10,10,10,5,6,4,,0.00,2,,196
2012-10-25,75,67,57,63,61,58,100,94,65,30.26,30.21,30.18,10,6,4,8,5,,0.00,6,,115
2012-10-26,71,64,56,63,59,56,100,95,69,30.24,30.18,30.09,10,5,0,8,3,,0.00,6,Fog,76
2012-10-27,66,60,55,61,56,53,100,90,68,30.09,29.98,29.87,10,10,10,14,6,21,0.00,3,Rain,64
2012-10-28,57,54,51,55,53,50,100,94,75,29.87,29.75,29.55,10,8,4,22,12,32,0.34,5,Rain,48
2012-10-29,53,49,45,53,50,46,100,100,100,29.55,29.17,28.54,10,5,1,37,19,48,0.97,8,Rain,357
2012-10-30,45,43,41,46,43,41,100,100,100,29.52,29.16,28.71,10,8,4,26,17,39,0.31,8,Rain,211
2012-10-31,53,46,40,45,42,39,100,87,58,29.68,29.59,29.51,10,10,10,12,2,,0.00,7,,233